Location: Unspecified
(0.0000°N, 0.0000°E)
Time: 21:03:14
(UTC+00:00)

Vanguard 1 - Pass Details

Date: 21 June 2025
Orbit: 649 x 3822 km, 34.2° (Epoch: 12 July)

Event Time Altitude Azimuth Distance (km) Brightness Sun altitude
Exits shadow 03:57:03 27° 152° (SSE) 1,534 11.0 -28.4°
Maximum altitude 03:57:47 27° 138° (SE) 1,554 11.1 -28.2°
Drops below altitude 10° 04:03:29 10° 81° (E) 3,050 13.5 -26.9°
Sets 04:07:31 0° 71° (ENE) 4,501 14.8 -26.0°
